Location: Chrząstowo
(52.0654°N, 17.1290°E)
Time: 12:22:51
(UTC+01:00)

ISS - Pass Details

Date: 29 January 2019
Orbit: 403 x 411 km, 51.6° (Epoch: 18 February)

Event Time Altitude Azimuth Distance (km) Brightness Sun altitude
Rises 18:16:33 0° 255° (WSW) 2,332 1.9 -15.8°
Reaches altitude 10° 18:18:38 10° 253° (WSW) 1,474 0.3 -16.1°
Maximum altitude 18:21:56 73° 169° (S) 433 -3.8 -16.6°
Enters shadow 18:22:46 47° 98° (E) 558 -3.6 -16.8°
